Temperature
19 19 19 19 17 17 18 19 19 19 19 19 19 19 19 18 19 18 18 18 18 18 18 18 18 18 18 18 18 18 18 18 18 17 17 17 17 17 17 17 17 17 17 17 17 17 17 17 17
19 19 19 19 17 17 19 19 19 19 20 20 20 19 19 18 18 18 18 18 18 18 18 18 18 18 18 18 18 18 17 17 17 17 17 17 17 17 17 17 17 17 17 17 17 17 17 17 17
19 19 19 16 17 18 19 19 19 19 20 20 19 19 19 18 18 18 18 18 18 18 18 18 18 18 17 17 17 17 17 17 17 17 17 17 17 17 17 17 16 16 16 17 17 17 17 17 17
19 19 19 17 18 18 18 19 19 19 20 20 19 19 19 19 19 19 18 18 18 18 18 18 17 17 17 17 17 17 17 17 17 17 17 16 16 16 16 16 16 16 16 16 17 17 17 17 17
19 19 17 17 18 18 18 18 19 19 19 20 19 18 18 19 19 19 19 18 18 18 18 18 17 17 17 17 17 17 17 17 17 16 16 16 16 16 16 16 16 16 16 16 16 16 16 16 17
19 17 17 17 18 19 18 19 19 19 19 19 19 18 18 19 19 19 19 18 18 18 18 18 17 17 17 17 17 17 17 16 16 16 16 16 16 16 16 16 16 16 16 16 16 16 16 16 16
19 16 17 18 18 18 19 19 19 18 19 19 19 18 18 18 19 19 18 18 18 18 18 18 17 17 17 17 17 17 17 16 16 16 16 16 16 16 16 16 16 16 15 15 16 16 16 16 16
19 16 17 17 18 18 19 19 19 19 19 19 19 18 18 19 18 18 18 18 18 18 18 18 18 17 17 17 17 17 17 16 16 16 16 16 16 16 16 16 16 16 15 15 15 15 16 16 16
19 16 17 18 18 18 19 19 19 19 19 19 19 19 19 19 18 18 18 18 18 18 18 18 18 17 17 17 17 17 17 17 16 16 16 16 16 16 16 16 15 15 15 15 15 15 16 16 16
18 16 18 18 18 18 19 19 19 19 19 19 19 19 19 19 19 19 19 18 18 18 18 18 18 17 17 17 17 17 17 16 16 16 16 16 16 16 16 15 15 15 15 15 15 15 16 16 16
18 17 18 18 19 19 19 19 19 19 18 19 19 19 19 19 19 19 19 19 19 18 18 18 18 17 17 17 17 17 17 16 16 16 16 16 16 16 15 15 15 15 15 15 15 15 15 15 16
18 18 19 19 20 19 19 19 19 19 19 20 20 20 19 19 19 19 19 19 19 18 18 18 18 17 17 17 17 17 16 16 16 16 16 16 16 15 15 15 15 15 15 15 15 15 15 15 16
18 19 19 20 20 20 20 19 19 19 20 20 20 20 20 19 19 19 19 19 19 18 18 18 18 17 17 17 17 17 16 16 16 16 16 15 15 15 15 15 15 15 15 15 15 15 15 15 15
19 19 19 19 20 20 19 19 19 19 20 20 20 19 20 19 19 19 19 19 19 18 18 18 18 17 17 17 17 16 16 16 16 16 15 15 15 15 15 15 15 15 15 15 15 15 15 15 15
19 19 19 19 19 20 20 19 18 19 20 19 19 19 19 19 19 19 19 19 19 19 18 18 18 17 17 17 17 16 16 16 16 15 15 15 15 15 15 15 15 15 15 14 15 15 15 15 15
19 18 18 18 19 19 19 18 18 19 19 19 19 19 19 19 19 19 19 19 19 19 18 18 18 17 17 17 17 16 16 16 15 15 15 15 15 15 15 15 14 14 14 14 14 15 15 15 15
17 17 18 18 19 19 19 18 18 19 19 18 19 19 19 19 19 19 19 19 19 19 18 18 17 17 17 17 16 16 16 15 15 15 15 15 15 15 15 14 14 14 14 14 14 14 15 15 15
17 18 18 18 18 18 18 18 17 18 18 18 18 19 19 19 19 19 19 19 19 18 18 18 17 17 17 17 16 16 16 15 15 15 15 15 15 14 14 14 14 14 14 14 14 14 14 14 15
18 18 17 18 18 18 18 17 17 17 18 17 18 19 19 19 19 19 19 19 19 18 18 18 17 17 17 17 16 16 16 15 15 15 15 15 15 14 14 14 14 14 14 14 14 14 14 14 14
18 18 17 18 19 18 17 17 17 17 17 18 18 18 19 19 19 19 19 19 19 18 18 18 17 17 17 17 16 16 16 15 15 15 15 15 15 14 14 14 14 14 14 14 14 14 14 14 14
18 18 18 18 18 18 18 17 17 17 17 18 18 19 19 19 19 19 19 19 19 18 18 18 17 17 17 16 16 16 16 15 15 15 15 15 14 14 14 14 14 14 14 14 14 14 14 14 14
18 18 18 18 17 16 17 17 17 16 17 17 17 18 19 19 19 19 19 19 19 18 18 18 17 17 17 17 16 16 16 16 15 15 15 15 14 14 14 14 14 14 14 14 14 14 14 14 14
18 18 18 18 17 16 16 17 16 16 17 16 17 18 19 19 19 19 19 19 19 18 18 18 17 17 17 17 16 16 16 16 15 15 15 15 14 14 14 14 14 14 14 14 13 13 13 13 13
18 17 17 16 16 16 17 17 17 15 16 17 17 18 18 19 19 19 19 19 18 18 18 17 17 17 17 17 16 16 16 16 15 15 15 15 14 14 14 14 14 14 14 14 14 13 13 13 13
18 17 16 16 16 16 16 16 16 17 17 17 17 18 19 19 19 19 19 18 18 18 18 17 17 17 17 17 16 16 16 16 15 15 15 15 14 14 14 14 14 14 14 14 14 13 13 13 13
17 17 16 17 16 16 16 16 17 17 17 18 18 18 19 19 19 19 19 19 18 18 18 17 17 17 17 16 16 16 16 15 15 15 15 15 14 14 14 14 14 14 14 14 13 13 13 13 13
17 16 16 16 16 16 16 17 17 17 16 17 17 18 18 19 19 19 18 18 18 18 18 18 17 17 17 17 16 16 16 16 15 15 15 15 14 14 14 14 14 14 14 14 13 13 13 13 13
18 16 15 16 16 16 17 17 16 17 16 16 16 17 18 19 19 19 19 18 18 18 18 17 17 17 17 17 16 16 16 16 15 15 15 15 14 14 14 14 14 14 14 13 13 13 13 13 13
17 17 15 14 15 16 16 17 17 17 16 16 16 17 18 19 19 19 19 18 18 18 18 17 17 17 17 16 16 16 16 16 15 15 15 15 14 14 14 14 14 14 14 13 13 13 13 13 13
18 17 16 16 16 15 15 16 18 17 17 17 17 18 18 19 19 19 19 18 18 18 17 17 17 17 17 16 16 16 16 15 15 15 15 14 14 14 14 14 14 13 13 13 13 13 13 13 13
Wind_Speed
1 4 3 3 5 5 2 2 1 1 2 1 3 4 5 4 2 4 1 5 7 6 6 10 12 12 13 13 13 13 13 13 13 13 13 12 12 11 10 10 10 9 9 8 8 8 8 7 7
2 2 4 4 4 3 2 2 1 1 3 2 4 5 5 5 4 5 3 5 8 7 7 9 12 12 12 12 13 13 13 12 12 12 11 11 10 10 9 9 9 9 8 8 7 7 7 7 7
2 3 3 4 3 3 1 1 1 1 2 1 3 4 4 3 4 4 4 7 7 6 7 9 11 11 11 12 12 12 12 11 11 11 10 9 9 8 8 8 7 7 7 7 7 7 7 6 6
3 4 4 4 2 1 1 1 1 2 2 3 4 4 3 2 4 5 8 8 8 6 7 8 11 11 11 11 11 11 10 10 9 9 9 8 7 7 7 6 7 7 7 7 7 7 7 7 7
4 4 5 3 1 1 1 1 1 2 2 2 3 5 3 4 6 10 9 8 8 6 6 8 10 10 10 10 9 9 9 8 8 7 7 6 6 6 6 6 6 6 6 7 7 7 7 8 7
4 4 4 1 2 2 1 1 2 4 3 3 4 4 2 1 7 8 8 7 6 6 6 6 8 9 9 9 8 8 7 6 6 5 5 5 5 5 5 5 6 6 7 7 7 7 8 8 7
4 4 3 1 1 2 2 2 2 4 3 2 3 5 2 2 4 6 6 6 5 5 5 4 4 6 7 7 6 6 5 5 4 4 4 5 5 5 5 6 6 6 6 7 7 8 8 8 8
4 4 3 1 1 1 2 2 2 3 2 2 3 6 4 5 6 6 6 5 4 4 3 3 3 3 4 4 4 4 4 4 4 4 4 5 5 6 6 7 6 6 7 7 7 8 8 8 8
4 4 2 3 3 1 1 2 2 2 3 2 2 3 5 10 10 8 5 3 3 3 2 2 2 2 2 2 2 3 3 4 4 4 5 6 6 7 7 7 7 7 8 8 8 8 8 8 8
4 3 2 2 3 3 1 1 1 3 3 2 4 5 9 11 10 9 6 5 4 3 3 2 2 2 2 2 3 4 4 4 5 5 5 5 6 6 7 8 8 9 9 9 9 9 9 8 7
3 4 2 1 2 3 3 2 1 4 1 3 6 8 10 9 8 8 6 5 5 3 2 3 2 2 2 1 2 3 4 4 4 4 3 4 5 6 6 7 8 8 8 8 8 8 7 6 5
1 1 2 1 2 3 3 2 2 2 3 3 6 11 10 10 8 8 7 5 4 3 2 2 3 2 2 2 2 3 2 2 3 3 3 3 3 3 4 4 5 6 6 6 6 5 6 6 6
1 0 0 0 2 2 4 2 2 1 1 4 8 10 10 9 7 5 4 4 4 3 2 2 3 3 2 3 2 2 2 2 3 3 4 3 2 2 3 3 4 5 6 5 4 4 4 5 5
2 1 1 2 3 2 4 2 3 1 3 6 8 7 7 7 7 5 4 4 4 4 3 2 3 4 4 3 2 2 2 3 4 4 4 4 3 2 2 2 3 4 5 4 4 3 3 3 3
2 2 4 3 2 2 5 3 1 0 5 6 6 5 5 4 5 6 5 5 5 4 4 4 4 4 4 4 3 3 3 4 4 4 4 4 4 3 3 2 3 4 5 5 4 4 4 3 4
3 4 3 3 2 1 5 1 2 1 6 5 5 4 4 3 4 4 5 5 5 5 5 4 4 5 4 4 3 3 4 4 4 4 4 4 5 4 4 2 2 4 4 4 3 3 3 3 3
5 3 1 3 2 2 4 2 2 2 6 5 4 4 4 3 2 3 5 5 5 6 6 5 5 6 5 5 4 4 4 4 4 4 4 4 4 4 4 2 2 4 3 3 3 3 2 2 3
2 2 1 1 2 3 3 2 1 2 5 5 4 4 4 4 3 3 5 5 5 5 6 6 6 6 5 4 4 4 4 3 4 4 3 4 4 4 4 3 4 4 3 4 3 3 2 2 3
4 4 2 1 1 3 3 1 1 1 3 4 4 4 5 4 2 3 5 6 6 5 6 6 6 5 4 3 3 2 2 2 2 2 3 3 4 3 3 2 3 3 3 3 3 2 3 3 3
4 3 1 1 2 3 2 1 1 2 4 5 5 5 5 4 3 4 5 5 5 6 5 5 5 5 3 3 2 2 2 1 1 2 3 4 4 3 2 2 2 2 3 4 4 3 2 3 3
2 5 5 3 3 4 3 3 2 1 1 2 3 4 5 7 7 6 5 5 5 6 6 6 5 4 4 4 3 3 3 3 3 3 3 3 4 3 3 2 2 2 2 2 3 3 2 2 3
2 3 5 5 4 1 2 1 4 1 1 2 3 3 4 5 6 6 6 6 6 5 5 5 5 4 4 4 4 4 2 1 1 1 2 3 4 4 3 3 2 2 2 2 2 2 1 1 1
4 4 5 4 5 3 2 2 5 0 2 4 5 5 5 5 6 7 6 6 5 5 5 4 5 4 3 3 4 4 2 1 1 1 2 3 3 3 4 3 2 2 2 2 2 2 2 1 0
6 7 6 5 4 1 2 2 5 4 5 5 5 5 6 6 5 6 5 5 4 4 4 4 4 3 3 3 3 3 3 1 1 1 2 3 3 3 3 3 2 2 2 2 2 2 2 1 1
5 6 3 3 2 3 2 2 6 5 5 6 7 6 6 6 6 6 6 6 5 5 4 4 4 2 2 2 2 2 2 2 2 1 1 1 2 2 3 2 2 2 2 2 1 2 2 2 1
4 6 6 4 4 2 1 3 6 4 2 4 5 6 6 6 6 6 6 6 6 5 5 4 4 2 2 2 1 2 2 2 1 1 1 1 2 3 2 1 1 2 2 2 2 1 2 1 1
6 3 5 6 3 1 3 4 5 2 3 5 6 6 6 6 6 6 6 6 6 5 5 5 5 3 2 2 2 1 1 1 1 1 0 1 2 2 1 1 2 2 2 2 2 2 2 2 1
5 8 5 5 4 1 3 3 4 4 4 5 6 7 6 5 5 5 6 6 5 5 4 4 4 4 2 2 2 2 1 1 1 1 0 1 2 2 2 2 2 2 2 2 2 2 2 2 2
4 4 5 4 4 5 2 5 5 8 8 9 9 8 7 7 6 6 5 5 6 5 5 4 4 3 2 2 2 2 1 0 0 0 1 1 1 1 1 2 2 2 2 2 2 2 2 2 3
5 7 7 5 3 4 3 5 4 5 6 8 8 7 6 6 5 5 5 6 5 5 4 4 4 3 2 2 2 2 1 1 1 1 2 1 1 1 2 2 2 2 2 2 1 2 3 2 3
Wind_Direction
53 81 72 55 52 51 36 334 31 42 48 20 63 84 96 79 95 131 123 126 122 118 120 120 116 112 110 106 102 100 98 97 95 92 91 89 86 83 80 76 73 69 65 61 57 53 50 47 45
102 91 55 58 78 64 339 319 49 96 144 129 61 61 70 62 70 107 122 133 125 124 123 123 117 114 111 107 104 102 100 97 95 93 91 88 85 82 78 73 69 64 59 55 51 46 44 42 39
97 59 75 69 89 145 221 311 78 67 97 101 71 53 73 94 117 137 156 139 127 121 122 127 122 117 112 110 108 104 101 98 95 93 90 86 82 79 74 67 62 57 51 46 42 37 35 35 34
78 45 54 69 82 210 209 287 203 115 68 65 102 73 64 55 146 148 139 134 128 121 123 130 125 121 116 112 109 106 104 101 98 93 88 83 78 73 66 58 52 46 40 36 34 31 28 26 24
61 72 59 45 355 326 280 269 205 103 62 60 92 90 46 10 107 128 135 136 135 128 126 131 126 123 119 115 112 108 106 103 98 92 84 77 70 62 52 44 38 33 30 28 24 22 20 19 16
55 65 80 66 331 336 337 330 106 93 83 68 82 92 51 64 122 138 137 133 134 131 124 128 130 124 121 118 113 109 104 100 92 81 70 58 48 38 32 26 23 23 21 17 13 11 9 8 7
100 94 120 130 8 353 357 22 95 98 91 88 104 100 91 139 146 135 125 118 117 117 112 110 119 123 125 123 118 112 104 94 82 66 54 42 30 23 19 15 16 13 12 13 8 6 4 2 2
116 102 95 103 133 319 343 33 72 99 110 103 108 130 164 184 141 113 102 98 103 105 108 116 117 113 105 106 114 106 92 77 65 56 47 38 27 18 14 12 8 6 6 5 2 2 2 1 2
90 78 130 190 170 191 34 67 57 44 92 62 80 137 156 140 126 117 109 99 118 141 136 135 130 122 104 91 84 69 62 52 48 42 39 40 31 20 13 10 10 7 5 3 2 2 5 8 9
85 119 208 201 173 154 129 89 115 81 71 61 61 72 113 129 136 143 151 160 172 185 187 173 166 145 106 79 61 49 44 40 41 38 37 39 34 24 21 14 14 13 12 12 16 16 17 19 14
127 168 196 241 156 137 126 101 92 127 145 183 153 140 136 140 150 160 169 173 184 186 187 175 170 148 122 81 63 51 42 37 41 39 37 41 36 26 19 16 13 11 13 16 16 19 17 19 15
136 239 179 225 129 122 126 126 110 143 201 169 151 145 145 153 166 175 179 182 170 165 195 177 159 147 136 106 76 64 51 41 38 33 43 58 43 25 17 20 9 11 9 12 14 12 11 16 16
151 300 106 152 131 142 113 104 114 44 61 107 121 136 149 160 170 176 171 161 157 169 184 177 152 144 119 98 79 78 64 59 54 48 50 71 69 36 25 22 20 15 15 15 11 11 12 14 12
182 139 28 35 85 95 107 71 76 8 92 111 125 143 156 164 163 156 154 159 173 176 169 145 131 127 116 111 103 93 83 77 67 52 48 64 72 56 37 23 17 12 10 10 13 10 10 6 8
116 88 34 22 53 79 104 58 75 260 114 122 138 145 146 157 148 161 171 168 168 162 147 137 131 117 118 117 108 100 87 86 72 56 51 61 68 66 59 34 14 2 6 12 16 13 14 10 10
71 69 42 345 32 81 112 147 281 134 130 140 150 151 154 160 163 165 160 149 146 139 133 130 128 117 113 105 93 90 88 84 74 65 58 57 57 61 59 37 7 359 11 18 11 12 11 8 6
44 88 87 339 12 84 119 176 266 128 143 157 161 164 161 156 160 164 151 146 147 145 137 119 112 110 104 94 86 84 78 69 65 63 55 48 50 56 65 42 8 10 19 13 7 20 17 5 358
172 134 108 316 335 98 116 175 285 133 154 168 173 172 172 176 198 164 146 137 135 132 127 120 110 104 102 92 79 67 59 45 48 49 40 39 39 46 56 41 21 24 24 12 10 10 15 8 348
140 129 121 276 301 110 131 174 264 146 161 178 185 185 186 191 184 128 133 129 123 122 125 126 124 124 116 99 97 90 66 29 23 22 21 25 27 34 46 32 19 21 22 2 358 5 15 9 359
122 116 127 9 36 105 104 9 316 184 202 205 197 196 188 172 142 132 134 131 136 140 136 132 139 140 138 125 120 118 118 72 9 351 9 13 14 17 31 35 14 11 14 11 11 18 13 9 20
151 165 174 159 66 53 83 5 335 301 213 200 190 187 179 177 170 163 154 151 146 151 157 157 154 148 138 122 103 81 56 34 18 5 353 351 1 6 17 24 23 12 21 6 0 14 39 11 6
195 196 160 139 109 34 93 225 288 275 245 205 197 179 180 181 170 166 163 166 165 162 153 150 146 140 133 131 126 124 117 104 281 299 315 332 355 3 8 9 17 19 14 6 351 19 20 55 5
170 115 113 116 117 76 32 127 284 273 224 225 210 192 186 183 172 171 172 173 161 151 150 146 136 129 125 130 133 123 113 127 334 349 345 348 349 358 5 11 19 14 5 3 9 13 21 39 56
122 87 71 59 77 68 242 170 272 229 213 211 209 193 185 177 167 160 153 140 132 132 136 138 136 133 126 126 124 131 136 130 72 360 348 341 337 339 355 7 12 1 357 353 354 7 18 13 13
96 101 67 24 20 256 239 188 251 251 217 194 192 190 184 173 164 158 155 155 150 147 147 143 139 136 128 127 137 159 168 169 181 221 275 320 327 323 323 344 345 342 334 342 5 14 0 358 1
156 140 152 175 200 266 288 238 261 281 207 161 157 162 166 166 166 168 170 166 163 161 153 142 144 151 143 144 170 174 167 164 191 209 211 250 273 277 293 312 324 332 342 356 16 7 342 359 2
138 153 153 127 126 95 278 287 310 44 94 125 135 146 168 172 171 171 170 169 166 161 158 156 152 148 148 159 157 160 160 151 192 217 217 274 289 303 326 336 340 333 344 355 7 2 340 348 342
136 140 109 119 141 208 294 274 241 218 195 170 165 171 180 169 166 166 168 168 162 156 147 141 141 152 150 147 159 146 169 196 204 125 342 299 308 324 351 355 350 345 351 357 5 345 339 356 336
120 113 112 117 146 151 216 270 233 207 194 184 185 180 176 171 172 170 168 158 147 139 140 140 142 140 140 150 147 118 113 114 64 352 289 286 308 322 328 326 334 341 347 349 357 340 341 343 336
159 163 148 151 186 163 165 265 291 216 190 177 174 172 168 166 163 157 152 142 141 145 146 148 152 153 164 156 135 126 107 81 55 336 307 300 309 314 316 324 333 331 334 336 343 336 340 334 329
Height
1503 1502 1503 1504 1506 1515 1517 1513 1510 1509 1508 1508 1507 1508 1509 1513 1516 1522 1519 1518 1519 1520 1522 1523 1524 1525 1526 1527 1527 1528 1529 1530 1530 1531 1531 1532 1532 1532 1532 1532 1533 1532 1532 1532 1532 1532 1532 1532 1532
1503 1503 1505 1505 1513 1524 1520 1512 1510 1509 1509 1508 1509 1509 1510 1513 1515 1517 1518 1519 1521 1522 1523 1524 1525 1526 1527 1528 1529 1530 1530 1531 1531 1532 1532 1533 1533 1533 1533 1533 1533 1533 1533 1533 1533 1532 1532 1532 1532
1503 1504 1505 1508 1516 1522 1518 1511 1510 1509 1509 1509 1510 1511 1513 1516 1517 1518 1519 1521 1522 1524 1525 1526 1527 1528 1529 1530 1530 1531 1532 1532 1533 1533 1534 1534 1534 1534 1534 1534 1534 1534 1534 1533 1533 1533 1533 1533 1532
1504 1505 1507 1513 1516 1515 1512 1510 1509 1509 1509 1510 1511 1513 1515 1518 1519 1520 1521 1523 1524 1526 1527 1528 1529 1530 1531 1531 1532 1533 1533 1534 1535 1535 1535 1535 1535 1535 1535 1535 1535 1534 1534 1534 1533 1533 1533 1533 1533
1505 1505 1511 1518 1515 1512 1510 1510 1509 1509 1510 1511 1512 1514 1517 1520 1521 1522 1523 1525 1526 1528 1529 1530 1531 1532 1533 1533 1534 1535 1536 1536 1536 1537 1537 1537 1536 1536 1536 1536 1535 1535 1534 1534 1534 1533 1533 1533 1533
1506 1507 1519 1523 1517 1512 1510 1510 1510 1510 1511 1512 1513 1516 1519 1521 1522 1524 1525 1527 1528 1530 1531 1532 1533 1534 1535 1536 1536 1537 1537 1538 1538 1538 1538 1538 1538 1537 1537 1536 1536 1535 1535 1534 1534 1533 1533 1533 1533
1507 1511 1518 1519 1518 1515 1512 1510 1511 1512 1513 1514 1515 1517 1520 1522 1524 1526 1527 1529 1530 1532 1533 1534 1535 1536 1537 1538 1538 1539 1539 1539 1539 1540 1539 1539 1539 1539 1538 1537 1537 1536 1536 1535 1534 1534 1533 1533 1533
1506 1511 1517 1519 1518 1516 1512 1511 1512 1513 1514 1515 1516 1518 1521 1523 1525 1527 1529 1531 1532 1534 1535 1536 1537 1538 1539 1539 1540 1540 1541 1541 1541 1541 1541 1540 1540 1539 1539 1538 1537 1537 1536 1536 1535 1534 1534 1533 1533
1507 1516 1520 1517 1517 1515 1512 1513 1514 1515 1515 1516 1517 1518 1521 1524 1526 1528 1530 1532 1534 1535 1536 1537 1538 1539 1540 1541 1541 1542 1542 1542 1542 1542 1541 1541 1541 1540 1539 1539 1538 1537 1536 1536 1535 1535 1534 1534 1534
1508 1517 1515 1512 1512 1512 1513 1513 1514 1515 1516 1517 1518 1520 1522 1524 1527 1529 1531 1533 1534 1536 1537 1539 1540 1541 1541 1542 1542 1543 1543 1543 1543 1542 1542 1542 1541 1540 1540 1539 1538 1537 1537 1536 1535 1535 1534 1534 1534
1508 1512 1511 1511 1511 1511 1512 1514 1515 1516 1518 1518 1518 1521 1523 1525 1528 1530 1532 1534 1536 1537 1538 1540 1541 1542 1542 1543 1543 1544 1544 1544 1543 1543 1543 1542 1542 1541 1540 1539 1539 1538 1537 1536 1535 1535 1534 1534 1534
1509 1509 1509 1510 1510 1512 1513 1514 1515 1516 1518 1518 1519 1521 1524 1526 1529 1531 1533 1535 1537 1538 1539 1541 1541 1542 1543 1544 1544 1545 1545 1545 1544 1544 1543 1543 1542 1541 1541 1540 1539 1538 1537 1536 1535 1535 1534 1534 1533
1509 1509 1509 1510 1510 1512 1513 1514 1516 1517 1518 1519 1521 1523 1525 1527 1530 1532 1535 1536 1538 1539 1540 1541 1542 1543 1544 1544 1545 1545 1545 1545 1545 1545 1544 1544 1543 1542 1541 1540 1539 1538 1537 1536 1535 1534 1534 1533 1533
1508 1509 1510 1510 1511 1512 1514 1516 1517 1519 1520 1521 1522 1524 1526 1528 1531 1533 1535 1536 1538 1540 1541 1542 1543 1544 1544 1545 1546 1546 1546 1546 1546 1545 1545 1544 1543 1542 1541 1540 1539 1538 1537 1536 1535 1534 1533 1533 1532
1508 1511 1512 1512 1512 1514 1515 1520 1519 1519 1520 1522 1524 1525 1528 1530 1532 1533 1535 1537 1539 1540 1542 1543 1544 1544 1545 1546 1546 1547 1547 1547 1547 1546 1545 1545 1544 1543 1541 1540 1539 1538 1537 1536 1535 1534 1533 1532 1532
1510 1515 1520 1516 1514 1515 1519 1526 1521 1520 1521 1523 1525 1527 1529 1531 1532 1534 1536 1538 1539 1541 1542 1543 1544 1545 1546 1547 1547 1547 1548 1547 1547 1547 1546 1545 1544 1543 1542 1540 1539 1538 1537 1536 1535 1534 1533 1532 1531
1518 1523 1523 1520 1515 1515 1519 1525 1521 1521 1521 1523 1525 1527 1529 1531 1533 1535 1537 1538 1540 1541 1543 1544 1545 1546 1547 1547 1548 1548 1548 1548 1548 1547 1547 1546 1545 1543 1542 1541 1539 1538 1537 1536 1535 1534 1532 1531 1530
1523 1523 1523 1523 1518 1517 1521 1524 1522 1521 1522 1524 1525 1527 1529 1531 1533 1535 1537 1539 1540 1542 1543 1545 1546 1547 1548 1548 1548 1548 1549 1548 1548 1548 1547 1546 1545 1544 1543 1541 1540 1539 1537 1536 1535 1534 1533 1532 1531
1516 1520 1524 1523 1518 1520 1523 1524 1523 1523 1523 1524 1526 1527 1529 1531 1533 1535 1537 1539 1541 1542 1544 1545 1546 1547 1548 1549 1549 1549 1549 1549 1549 1548 1548 1547 1546 1545 1543 1542 1540 1539 1538 1537 1535 1534 1533 1532 1531
1516 1521 1524 1522 1518 1521 1525 1526 1524 1523 1524 1524 1525 1527 1528 1531 1533 1535 1537 1539 1541 1542 1544 1546 1547 1548 1549 1549 1550 1550 1550 1550 1549 1549 1548 1548 1546 1545 1544 1542 1541 1540 1538 1537 1536 1534 1533 1532 1532
1517 1521 1522 1523 1521 1522 1526 1530 1527 1524 1524 1524 1525 1526 1528 1530 1532 1534 1537 1539 1541 1542 1544 1546 1547 1549 1550 1550 1550 1550 1550 1550 1550 1549 1549 1548 1547 1545 1544 1543 1541 1540 1539 1537 1536 1535 1534 1533 1532
1520 1514 1517 1520 1528 1534 1531 1541 1529 1526 1524 1524 1524 1525 1527 1529 1531 1533 1536 1538 1540 1543 1545 1546 1548 1549 1550 1550 1551 1551 1550 1550 1550 1550 1549 1548 1547 1546 1544 1543 1542 1540 1539 1538 1537 1536 1534 1533 1533
1514 1513 1517 1521 1528 1536 1535 1540 1535 1527 1526 1524 1523 1524 1526 1528 1530 1532 1535 1538 1540 1543 1545 1547 1548 1549 1550 1551 1551 1551 1551 1551 1551 1550 1549 1548 1547 1546 1545 1543 1542 1541 1539 1538 1537 1536 1535 1534 1533
1511 1517 1522 1527 1533 1543 1537 1540 1537 1529 1523 1521 1521 1523 1525 1527 1530 1532 1535 1538 1540 1543 1545 1547 1548 1549 1550 1551 1551 1551 1552 1551 1551 1550 1549 1549 1547 1546 1545 1543 1542 1541 1540 1538 1537 1536 1535 1534 1533
1514 1526 1540 1543 1548 1545 1535 1537 1533 1518 1516 1517 1518 1521 1524 1526 1529 1532 1534 1537 1540 1542 1544 1546 1548 1549 1550 1551 1551 1551 1552 1551 1551 1550 1549 1548 1547 1546 1545 1544 1542 1541 1540 1539 1538 1537 1535 1534 1533
1515 1522 1539 1547 1549 1545 1536 1537 1525 1515 1513 1515 1517 1520 1523 1526 1529 1531 1534 1537 1539 1542 1544 1546 1547 1549 1549 1550 1551 1551 1551 1551 1551 1550 1549 1548 1547 1546 1545 1543 1542 1541 1540 1539 1538 1537 1535 1534 1533
1516 1521 1522 1535 1540 1545 1540 1530 1520 1514 1514 1515 1517 1520 1522 1525 1528 1531 1534 1536 1539 1541 1544 1545 1547 1548 1549 1550 1550 1551 1551 1551 1550 1550 1549 1548 1547 1546 1545 1544 1542 1541 1540 1539 1538 1536 1535 1534 1533
1509 1516 1528 1535 1545 1549 1539 1534 1529 1518 1516 1516 1517 1519 1521 1524 1527 1530 1533 1536 1538 1541 1543 1545 1546 1547 1548 1549 1550 1550 1550 1550 1550 1549 1549 1548 1547 1546 1545 1543 1542 1541 1540 1538 1537 1536 1535 1534 1532
1513 1518 1524 1533 1535 1546 1546 1537 1513 1512 1511 1513 1515 1517 1520 1523 1526 1529 1532 1535 1537 1540 1542 1544 1546 1547 1548 1548 1549 1549 1549 1549 1549 1549 1548 1547 1546 1545 1544 1543 1542 1540 1539 1538 1537 1535 1534 1533 1532
1504 1511 1519 1530 1535 1537 1541 1534 1507 1507 1508 1509 1512 1516 1519 1522 1525 1528 1531 1534 1536 1539 1541 1544 1545 1546 1547 1548 1548 1549 1549 1549 1548 1548 1547 1546 1545 1544 1543 1542 1541 1539 1538 1537 1536 1534 1533 1532 1531